Torrington, WY

2:41 PM MDT on July 23, 2016 (GMT -0600)
Torrington Municipal

Weather History for KTOR - May, 2014

Change the Weather History Date:

Monday, May 19, 2014

  Actual Average Record
Temperature  
Mean Temperature 62 °F 58 °F  
Max Temperature 75 °F 72 °F 96 °F (2009)
Min Temperature 48 °F 43 °F 32 °F (2003)
Degree Days  
Heating Degree Days 3 8  
Month to date heating degree days 278 202  
Since 1 July heating degree days 6787 6434  
Cooling Degree Days 0 0  
Month to date cooling degree days 0 0  
Year to date cooling degree days 0 1  
Growing Degree Days 12 (Base 50)    
Moisture  
Dew Point 47 °F    
Average Humidity 59    
Maximum Humidity 86    
Minimum Humidity 31    
Precipitation  
Precipitation 0.08 in 0.06 in 1.09 in (2011)
Month to date precipitation 2.83 1.22  
Year to date precipitation 5.57 4.23  
Sea Level Pressure  
Sea Level Pressure 29.68 in    
Wind  
Wind Speed 9 mph (NNE)    
Max Wind Speed 20 mph    
Max Gust Speed 23 mph    
Visibility 10 miles    
Events Rain , Thunderstorm    
T = Trace of Precipitation, MM = Missing Value Source: NWS Daily Summary

Daily Weather History Graph

Daily Weather History Graph

Search for Another Location

Airport or City:

Trip Planner

Search our weather history database for the weather conditions in past years. The results will help you decide how hot, cold, wet, or windy it might be!

Date:

Astronomy

May. 19, 2014 Rise Set
Actual Time 5:32 AM MDT 8:14 PM MDT
Civil Twilight 4:59 AM MDT 8:47 PM MDT
Nautical Twilight 4:19 AM MDT 9:27 PM MDT
Astronomical Twilight 3:32 AM MDT 10:14 PM MDT
Moon 12:02 AM MDT (5/19) 10:34 AM MDT (5/19)
Length of Visible Light 15h 47m
Length of Day
14h 42m
Waning Gibbous, 70% of the Moon is Illuminated
May 19
Waning Gibbous
May 21
Last Quarter
May 28
New
Jun 5
First Quarter
Jun 12
Full

Hourly Weather History & Observations

Time (MDT) Temp. Dew Point Humidity Pressure Visibility Wind Dir Wind Speed Gust Speed Precip Events Conditions
12:53 AM 57.0 °F 48.9 °F 74% 29.55 in 10.0 mi NE 17.3 mph - N/A   Clear
1:53 AM 60.1 °F 50.0 °F 69% 29.49 in 10.0 mi East 12.7 mph - N/A   Clear
2:53 AM 55.9 °F 48.9 °F 77% 29.55 in 10.0 mi NW 5.8 mph - N/A   Clear
3:53 AM 52.0 °F 45.0 °F 77% 29.59 in 10.0 mi NW 11.5 mph - N/A   Clear
4:53 AM 51.1 °F 45.0 °F 80% 29.65 in 10.0 mi NW 15.0 mph - N/A   Clear
5:53 AM 48.9 °F 45.0 °F 86% 29.64 in 10.0 mi North 13.8 mph - N/A   Clear
7:53 AM 54.0 °F 46.9 °F 77% 29.67 in 10.0 mi WSW 6.9 mph - N/A   Clear
8:53 AM 57.9 °F 48.0 °F 70% 29.66 in 10.0 mi Variable 3.5 mph - N/A   Clear
9:53 AM 62.1 °F 46.0 °F 56% 29.65 in 10.0 mi SW 4.6 mph - N/A   Clear
10:53 AM 66.0 °F 44.1 °F 45% 29.65 in 10.0 mi Variable 4.6 mph - N/A   Clear
12:53 PM 73.0 °F 41.0 °F 31% 29.64 in 10.0 mi North 9.2 mph - N/A   Clear
1:53 PM 75.0 °F 43.0 °F 32% 29.63 in 10.0 mi NNE 9.2 mph - N/A   Partly Cloudy
2:35 PM 70.0 °F 46.0 °F 42% 29.76 in 10.0 mi NNE 11.5 mph - N/A Thunderstorm Thunderstorm
2:53 PM 66.0 °F 48.9 °F 54% 29.68 in 4.0 mi North 9.2 mph 19.6 mph 0.06 in Rain , Thunderstorm Thunderstorms and Rain
3:14 PM 70.0 °F 52.0 °F 53% 29.77 in 10.0 mi NE 12.7 mph - 0.00 in   Scattered Clouds
3:53 PM 68.0 °F 48.9 °F 50% 29.68 in 10.0 mi ENE 12.7 mph - 0.01 in   Mostly Cloudy
4:53 PM 66.9 °F 48.0 °F 51% 29.68 in 10.0 mi NE 19.6 mph - 0.00 in   Partly Cloudy
5:02 PM 66.0 °F 46.9 °F 50% 29.77 in 10.0 mi NE 17.3 mph - N/A Thunderstorm Clear
5:17 PM 66.0 °F 48.0 °F 52% 29.79 in 10.0 mi NE 15.0 mph - N/A   Mostly Cloudy
5:53 PM 64.9 °F 50.0 °F 58% 29.71 in 10.0 mi ENE 12.7 mph - 0.00 in Rain Light Rain
6:53 PM 64.0 °F 50.0 °F 60% 29.73 in 10.0 mi ENE 9.2 mph - 0.01 in   Mostly Cloudy
7:53 PM 60.1 °F 51.1 °F 72% 29.76 in 10.0 mi NNE 11.5 mph - N/A   Partly Cloudy
8:53 PM 59.0 °F 46.0 °F 62% 29.79 in 10.0 mi North 15.0 mph - N/A   Clear
9:53 PM 55.9 °F 45.0 °F 67% 29.81 in 10.0 mi North 11.5 mph - N/A   Partly Cloudy
10:53 PM 55.0 °F 45.0 °F 69% 29.82 in 10.0 mi NNW 5.8 mph - N/A   Partly Cloudy